Weather History for Roanoke, VA

Change the Weather History Date:

Monday, June 17, 2013

  Actual Average Record
Temperature  
Mean Temperature 77 °F 74 °F  
Max Temperature 86 °F 84 °F 96 °F (1944)
Min Temperature 67 °F 63 °F 41 °F (1917)
Degree Days  
Heating Degree Days 0 0  
Month to date heating degree days 1 9  
Since 1 June heating degree days 1 9  
Since 1 July heating degree days 4001 4142  
Cooling Degree Days 12 9  
Month to date cooling degree days 134 117  
Year to date cooling degree days 284 233  
Since 1 June cooling degree days 134 117  
Growing Degree Days 26 (Base 50)    
Moisture  
Dew Point 65 °F    
Average Humidity 72    
Maximum Humidity 93    
Minimum Humidity 51    
Precipitation  
Precipitation 0.01 in 0.13 in 2.02 in (1953)
Month to date precipitation 4.10 2.26  
Year to date precipitation 24.64 18.96  
Snow  
Snow 0.00 in - - ()
Month to date snowfall 0.0  
Since 1 June snowfall 0.0  
Since 1 July snowfall 18.3  
Snow Depth 0.00 in    
Sea Level Pressure  
Sea Level Pressure 29.98 in    
Wind  
Wind Speed 4 mph (SSW)    
Max Wind Speed 17 mph    
Max Gust Speed 22 mph    
Visibility 10 miles    
Events Rain    
T = Trace of Precipitation, MM = Missing Value Source: NWS Daily Summary

Daily Weather History Graph

Daily Weather History Graph

Search for Another Location

Airport:

Trip Planner

Search our weather history database for the weather conditions in past years. The results will help you decide how hot, cold, wet, or windy it might be!

Date:

Astronomy

Jun. 17, 2013 Rise Set
Actual Time 5:58 AM EDT 8:42 PM EDT
Civil Twilight 5:27 AM EDT 9:13 PM EDT
Nautical Twilight 4:49 AM EDT 9:52 PM EDT
Astronomical Twilight 4:05 AM EDT 10:36 PM EDT
Moon 2:26 PM EDT 1:26 AM EDT
Length of Visible Light 15h 45m
Length of Day
14h 43m
First Quarter, 60% of the Moon is Illuminated
Jun 17
First Quarter
Jun 23
Full
Jun 30
Last Quarter
Jul 8
New
Jul 15
First Quarter

Hourly Weather History & Observations

Time (EDT) Temp. Heat Index Dew Point Humidity Pressure Visibility Wind Dir Wind Speed Gust Speed Precip Events Conditions
12:54 AM 70.0 °F - 64.9 °F 84% 30.04 in 8.0 mi SW 3.5 mph - 0.05 in Rain Light Rain
1:54 AM 69.1 °F - 64.9 °F 87% 30.02 in 10.0 mi Calm Calm - 0.00 in Rain Light Rain
2:54 AM 68.0 °F - 64.9 °F 90% 30.02 in 10.0 mi West 5.8 mph - N/A   Overcast
3:54 AM 66.9 °F - 64.0 °F 90% 30.01 in 10.0 mi West 3.5 mph - 0.00 in Rain Light Rain
4:54 AM 66.9 °F - 64.0 °F 90% 30.01 in 10.0 mi NW 4.6 mph - 0.01 in   Mostly Cloudy
5:54 AM 66.9 °F - 64.0 °F 90% 30.01 in 10.0 mi West 5.8 mph - N/A   Mostly Cloudy
6:54 AM 66.9 °F - 64.0 °F 90% 30.02 in 10.0 mi SW 4.6 mph - N/A   Mostly Cloudy
7:54 AM 68.0 °F - 64.9 °F 90% 30.01 in 10.0 mi Calm Calm - N/A   Mostly Cloudy
8:54 AM 69.1 °F - 64.9 °F 87% 30.02 in 10.0 mi WSW 3.5 mph - N/A   Mostly Cloudy
9:54 AM 71.1 °F - 64.9 °F 81% 30.01 in 10.0 mi Variable 5.8 mph - N/A   Scattered Clouds
10:54 AM 78.1 °F - 66.0 °F 66% 30.01 in 10.0 mi Variable 3.5 mph - N/A   Partly Cloudy
11:54 AM 80.1 °F 81.9 °F 64.9 °F 60% 30.00 in 10.0 mi Variable 4.6 mph - N/A   Mostly Cloudy
12:54 PM 82.9 °F 85.0 °F 66.0 °F 56% 29.99 in 10.0 mi Calm Calm - N/A   Mostly Cloudy
1:54 PM 82.0 °F 83.4 °F 64.0 °F 54% 29.99 in 10.0 mi Calm Calm - N/A   Mostly Cloudy
2:54 PM 84.9 °F 86.6 °F 64.9 °F 51% 29.96 in 10.0 mi SSE 8.1 mph - N/A   Scattered Clouds
3:54 PM 82.9 °F 85.0 °F 66.0 °F 56% 29.95 in 10.0 mi South 6.9 mph - N/A   Scattered Clouds
4:54 PM 81.0 °F 83.0 °F 66.0 °F 60% 29.93 in 10.0 mi South 16.1 mph 20.7 mph N/A   Mostly Cloudy
5:54 PM 81.0 °F 82.5 °F 64.0 °F 56% 29.93 in 10.0 mi South 15.0 mph 21.9 mph N/A   Scattered Clouds
6:54 PM 80.1 °F 81.5 °F 63.0 °F 56% 29.94 in 10.0 mi SSE 5.8 mph - N/A   Partly Cloudy
7:54 PM 77.0 °F - 62.1 °F 60% 29.94 in 10.0 mi SSE 6.9 mph - N/A   Scattered Clouds
8:54 PM 77.0 °F - 64.0 °F 64% 29.94 in 10.0 mi Calm Calm - N/A   Partly Cloudy
9:54 PM 75.9 °F - 64.9 °F 69% 29.95 in 10.0 mi Calm Calm - N/A   Partly Cloudy
10:54 PM 73.0 °F - 64.9 °F 76% 29.96 in 10.0 mi Calm Calm - N/A   Clear
11:54 PM 73.0 °F - 66.9 °F 81% 29.96 in 10.0 mi South 4.6 mph - N/A   Partly Cloudy